ProjectID,Date,Electric Generation,Electric Utility Import,Facility Electric Load
,YYYY-MM-DD,kW,kW,kW
162,2013-12-01,0.0,,0.0
162,2013-12-02,0.0,,0.0
162,2013-12-03,0.0,,0.0
162,2013-12-04,0.0,,0.0
162,2013-12-05,0.0,,0.0
162,2013-12-06,0.0,,0.0
162,2013-12-07,0.0,,0.0
162,2013-12-08,0.0,,0.0
162,2013-12-09,0.0,,0.0
162,2013-12-10,0.0,,0.0
162,2013-12-11,0.0,,0.0
162,2013-12-12,0.0,,0.0
162,2013-12-13,0.0,,0.0
162,2013-12-14,0.0,,0.0
162,2013-12-15,0.0,,0.0
162,2013-12-16,0.0,,0.0
162,2013-12-17,0.0,,0.0
162,2013-12-18,2.814083333333333,,2.814083333333333
162,2013-12-19,5.941041666666666,,5.941041666666666
162,2013-12-20,14.787625,,14.787625
162,2013-12-21,31.985916666666668,,31.985916666666668
162,2013-12-22,13.081249999999999,,13.081249999999999
162,2013-12-23,2.902916666666666,,2.902916666666666
162,2013-12-24,43.19766666666666,,43.19766666666666
162,2013-12-25,10.910833333333334,,10.910833333333334
162,2013-12-26,21.882499999999997,,21.882499999999997
162,2013-12-27,37.268166666666666,,37.268166666666666
162,2013-12-28,36.98954166666667,,36.98954166666667
162,2013-12-29,3.610583333333334,,3.610583333333334
162,2013-12-30,15.84754166666667,,15.84754166666667
162,2013-12-31,27.880583333333334,,27.880583333333334
162,2014-01-01,29.941208333333332,,29.941208333333332
162,2014-01-02,2.1809999999999996,,2.1809999999999996
162,2014-01-03,9.233083333333333,,9.233083333333333
162,2014-01-04,14.448875,,14.448875
162,2014-01-05,2.562791666666666,,2.562791666666666
162,2014-01-06,14.377916666666666,,14.377916666666666
162,2014-01-07,54.26041666666666,,54.26041666666666
162,2014-01-08,50.73645833333333,,50.73645833333333
162,2014-01-09,51.55437499999999,,51.55437499999999
162,2014-01-10,6.8979583333333325,,6.8979583333333325
162,2014-01-11,8.233500000000001,,8.233500000000001
162,2014-01-12,25.27354166666667,,25.27354166666667
162,2014-01-13,43.231291666666664,,43.231291666666664
162,2014-01-14,3.676375,,3.676375
162,2014-01-15,37.49720833333333,,37.49720833333333
162,2014-01-16,12.591333333333333,,12.591333333333333
162,2014-01-17,47.84254166666667,,47.84254166666667
162,2014-01-18,15.561916666666669,,15.561916666666669
162,2014-01-19,26.535666666666668,,26.535666666666668
162,2014-01-20,28.81325,,28.81325
162,2014-01-21,1.2785416666666667,,1.2785416666666667
162,2014-01-22,28.93370833333334,,28.93370833333334
162,2014-01-23,34.066833333333335,,34.066833333333335
162,2014-01-24,38.28304166666667,,38.28304166666667
162,2014-01-25,13.686166666666663,,13.686166666666663
162,2014-01-26,20.92575,,20.92575
162,2014-01-27,33.40266666666666,,33.40266666666666
162,2014-01-28,43.97533333333333,,43.97533333333333
162,2014-01-29,31.25758333333333,,31.25758333333333
162,2014-01-30,61.754625,,61.754625
162,2014-01-31,33.071958333333335,,33.071958333333335
162,2014-02-01,45.60108333333333,,45.60108333333333
162,2014-02-02,34.532333333333334,,34.532333333333334
162,2014-02-03,0.0,,0.0
162,2014-02-04,0.0,,0.0
162,2014-02-05,0.0,,0.0
162,2014-02-06,0.0,,0.0
162,2014-02-07,0.0,,0.0
162,2014-02-08,0.0,,0.0
162,2014-02-09,0.0,,0.0
162,2014-02-10,0.0,,0.0
162,2014-02-11,0.0,,0.0
162,2014-02-12,0.0,,0.0
162,2014-02-13,0.0,,0.0
162,2014-02-14,0.0,,0.0
162,2014-02-15,0.0,,0.0
162,2014-02-16,0.0,,0.0
162,2014-02-17,0.0,,0.0
162,2014-02-18,0.0,,0.0
162,2014-02-19,0.0,,0.0
162,2014-02-20,0.0,,0.0
162,2014-02-21,0.0,,0.0
162,2014-02-22,0.0,,0.0
162,2014-02-23,0.0,,0.0
162,2014-02-24,0.0,,0.0
162,2014-02-25,0.0,,0.0
162,2014-02-26,0.0,,0.0
162,2014-02-27,0.0,,0.0
162,2014-02-28,0.0,,0.0
162,2014-03-01,0.0,,0.0
162,2014-03-02,0.0,,0.0
162,2014-03-03,0.0,,0.0
162,2014-03-04,0.0,,0.0
162,2014-03-05,0.0,,0.0
162,2014-03-06,0.0,,0.0
162,2014-03-07,0.0,,0.0
162,2014-03-08,0.0,,0.0
162,2014-03-09,0.0,,0.0
162,2014-03-10,0.0,,0.0
162,2014-03-11,0.0,,0.0
162,2014-03-12,0.0,,0.0
162,2014-03-13,0.0,,0.0
162,2014-03-14,64.22808333333334,,64.22808333333334
162,2014-03-15,90.62958333333334,,90.62958333333334
162,2014-03-16,69.71741666666667,,69.71741666666667
162,2014-03-17,53.073041666666654,,53.073041666666654
162,2014-03-18,105.980375,,105.980375
162,2014-03-19,45.44712499999999,,45.44712499999999
162,2014-03-20,76.37620833333334,,76.37620833333334
162,2014-03-21,94.39800000000001,,94.39800000000001
162,2014-03-22,75.08299999999998,,75.08299999999998
162,2014-03-23,47.56379166666667,,47.56379166666667
162,2014-03-24,99.57437500000002,,99.57437500000002
162,2014-03-25,68.07316666666667,,68.07316666666667
162,2014-03-26,113.87308333333333,,113.87308333333333
162,2014-03-27,97.28162500000002,,97.28162500000002
162,2014-03-28,26.065958333333338,,26.065958333333338
162,2014-03-29,14.343041666666664,,14.343041666666664
162,2014-03-30,21.592291666666664,,21.592291666666664
162,2014-03-31,80.88108333333334,,80.88108333333334
162,2014-04-01,82.024875,,82.024875
162,2014-04-02,34.37270833333334,,34.37270833333334
162,2014-04-03,87.43204166666668,,87.43204166666668
162,2014-04-04,12.454166666666667,,12.454166666666667
162,2014-04-05,79.43679166666666,,79.43679166666666
162,2014-04-06,89.0175,,89.0175
162,2014-04-07,34.87833333333333,,34.87833333333333
162,2014-04-08,76.33070833333335,,76.33070833333335
162,2014-04-09,72.5385,,72.5385
162,2014-04-10,102.024875,,102.024875
162,2014-04-11,71.25962500000001,,71.25962500000001
162,2014-04-12,101.07599999999998,,101.07599999999998
162,2014-04-13,85.48766666666667,,85.48766666666667
162,2014-04-14,95.72308333333332,,95.72308333333332
162,2014-04-15,15.406041666666667,,15.406041666666667
162,2014-04-16,108.05716666666666,,108.05716666666666
162,2014-04-17,103.69504166666667,,103.69504166666667
162,2014-04-18,90.126625,,90.126625
162,2014-04-19,99.98170833333334,,99.98170833333334
162,2014-04-20,0.0031250000000000006,,0.0031250000000000006
162,2014-04-21,96.39508333333333,,96.39508333333333
162,2014-04-22,82.17216666666667,,82.17216666666667
162,2014-04-23,66.61445833333333,,66.61445833333333
162,2014-04-24,100.4385416666667,,100.4385416666667
162,2014-04-25,92.23358333333334,,92.23358333333334
162,2014-04-26,65.78770833333333,,65.78770833333333
162,2014-04-27,64.19854166666667,,64.19854166666667
162,2014-04-28,90.24975,,90.24975
162,2014-04-29,29.110416666666666,,29.110416666666666
162,2014-04-30,9.361958333333332,,9.361958333333332
162,2014-05-01,93.27075000000002,,93.27075000000002
162,2014-05-02,94.65579166666664,,94.65579166666664
162,2014-05-03,86.3952916666667,,86.3952916666667
162,2014-05-04,61.31704166666666,,61.31704166666666
162,2014-05-05,90.59429166666665,,90.59429166666665
162,2014-05-06,118.97329166666664,,118.97329166666664
162,2014-05-07,99.957125,,99.957125
162,2014-05-08,4.550208333333333,,4.550208333333333
162,2014-05-09,33.62366666666666,,33.62366666666666
162,2014-05-10,82.34520833333333,,82.34520833333333
162,2014-05-11,111.619375,,111.619375
162,2014-05-12,25.242375000000006,,25.242375000000006
162,2014-05-13,101.70691666666666,,101.70691666666666
162,2014-05-14,71.34533333333333,,71.34533333333333
162,2014-05-15,46.02620833333333,,46.02620833333333
162,2014-05-16,20.481291666666664,,20.481291666666664
162,2014-05-17,124.89816666666668,,124.89816666666668
162,2014-05-18,55.856166666666674,,55.856166666666674
162,2014-05-19,87.92087500000002,,87.92087500000002
162,2014-05-20,115.77616666666667,,115.77616666666667
162,2014-05-21,73.47716666666668,,73.47716666666668
162,2014-05-22,46.84670833333333,,46.84670833333333
162,2014-05-23,47.12845833333333,,47.12845833333333
162,2014-05-24,60.65500000000001,,60.65500000000001
162,2014-05-25,99.59279166666666,,99.59279166666666
162,2014-05-26,126.47429166666667,,126.47429166666667
162,2014-05-27,81.90170833333332,,81.90170833333332
162,2014-05-28,27.626875000000002,,27.626875000000002
162,2014-05-29,115.21379166666668,,115.21379166666668
162,2014-05-30,91.23366666666665,,91.23366666666665
162,2014-05-31,119.167875,,119.167875
162,2014-06-01,0.007375,,0.007375
162,2014-06-02,48.04895833333335,,48.04895833333335
162,2014-06-03,99.7785,,99.7785
162,2014-06-04,99.78283333333333,,99.78283333333333
162,2014-06-05,73.7095,,73.7095
162,2014-06-06,115.29704166666669,,115.29704166666669
162,2014-06-07,116.04033333333331,,116.04033333333331
162,2014-06-08,100.66212500000002,,100.66212500000002
162,2014-06-09,32.68216666666667,,32.68216666666667
162,2014-06-10,89.85287499999998,,89.85287499999998
162,2014-06-11,38.10125,,38.10125
162,2014-06-12,28.57670833333333,,28.57670833333333
162,2014-06-13,78.01641666666667,,78.01641666666667
162,2014-06-14,100.75591666666668,,100.75591666666668
162,2014-06-15,100.0320416666667,,100.0320416666667
162,2014-06-16,101.98529166666667,,101.98529166666667
162,2014-06-17,88.31512500000002,,88.31512500000002
162,2014-06-18,89.58891666666666,,89.58891666666666
162,2014-06-19,45.16616666666666,,45.16616666666666
162,2014-06-20,95.27912500000001,,95.27912500000001
162,2014-06-21,100.73466666666666,,100.73466666666666
162,2014-06-22,55.341708333333344,,55.341708333333344
162,2014-06-23,77.03479166666666,,77.03479166666666
162,2014-06-24,86.19275,,86.19275
162,2014-06-25,88.28075,,88.28075
162,2014-06-26,85.56158333333332,,85.56158333333332
162,2014-06-27,100.03187500000001,,100.03187500000001
162,2014-06-28,126.11554166666667,,126.11554166666667
162,2014-06-29,121.05029166666667,,121.05029166666667
162,2014-06-30,122.18687499999999,,122.18687499999999
162,2014-07-01,105.99729166666667,,105.99729166666667
162,2014-07-02,106.93195833333334,,106.93195833333334
162,2014-07-03,109.45333333333333,,109.45333333333333
162,2014-07-04,49.69112499999999,,49.69112499999999
162,2014-07-05,141.8819583333333,,141.8819583333333
162,2014-07-06,123.86458333333333,,123.86458333333333
162,2014-07-07,128.02641666666668,,128.02641666666668
162,2014-07-08,112.97516666666667,,112.97516666666667
162,2014-07-09,108.60841666666668,,108.60841666666668
162,2014-07-10,108.00633333333333,,108.00633333333333
162,2014-07-11,123.24974999999999,,123.24974999999999
162,2014-07-12,128.7853333333333,,128.7853333333333
162,2014-07-13,71.77470833333335,,71.77470833333335
162,2014-07-14,76.94004166666667,,76.94004166666667
162,2014-07-15,51.178666666666665,,51.178666666666665
162,2014-07-16,93.17133333333334,,93.17133333333334
162,2014-07-17,110.65029166666665,,110.65029166666665
162,2014-07-18,116.99708333333335,,116.99708333333335
162,2014-07-19,69.74987499999999,,69.74987499999999
162,2014-07-20,100.01245833333333,,100.01245833333333
162,2014-07-21,112.548,,112.548
162,2014-07-22,112.14566666666666,,112.14566666666666
162,2014-07-23,103.61695833333333,,103.61695833333333
162,2014-07-24,71.48308333333333,,71.48308333333333
162,2014-07-25,119.66625000000003,,119.66625000000003
162,2014-07-26,72.77404166666668,,72.77404166666668
162,2014-07-27,74.35570833333333,,74.35570833333333
162,2014-07-28,95.38220833333334,,95.38220833333334
162,2014-07-29,104.18929166666668,,104.18929166666668
162,2014-07-30,108.65008333333331,,108.65008333333331
162,2014-07-31,88.28095833333333,,88.28095833333333
162,2014-08-01,64.09795833333332,,64.09795833333332
162,2014-08-02,77.32312499999999,,77.32312499999999
162,2014-08-03,87.28916666666667,,87.28916666666667
162,2014-08-04,69.31012499999999,,69.31012499999999
162,2014-08-05,105.83479166666665,,105.83479166666665
162,2014-08-06,84.28766666666667,,84.28766666666667
162,2014-08-07,94.76504166666666,,94.76504166666666
162,2014-08-08,101.29229166666669,,101.29229166666669
162,2014-08-09,89.01487500000002,,89.01487500000002
162,2014-08-10,95.25566666666667,,95.25566666666667
162,2014-08-11,103.82616666666668,,103.82616666666668
162,2014-08-12,21.100083333333334,,21.100083333333334
162,2014-08-13,62.81041666666667,,62.81041666666667
162,2014-08-14,12.232791666666666,,12.232791666666666
162,2014-08-15,8.880875,,8.880875
162,2014-08-16,90.89058333333331,,90.89058333333331
162,2014-08-17,71.26204166666666,,71.26204166666666
162,2014-08-18,91.93208333333332,,91.93208333333332
162,2014-08-19,92.84899999999999,,92.84899999999999
162,2014-08-20,91.07520833333331,,91.07520833333331
162,2014-08-21,84.47612500000001,,84.47612500000001
162,2014-08-22,53.29725,,53.29725
162,2014-08-23,21.049083333333332,,21.049083333333332
162,2014-08-24,66.46504166666666,,66.46504166666666
162,2014-08-25,91.32170833333335,,91.32170833333335
162,2014-08-26,90.6545,,90.6545
162,2014-08-27,89.147875,,89.147875
162,2014-08-28,96.37966666666667,,96.37966666666667
162,2014-08-29,90.24679166666668,,90.24679166666668
162,2014-08-30,53.91491666666666,,53.91491666666666
162,2014-08-31,53.950625,,53.950625
162,2014-09-01,66.00325000000001,,66.00325000000001
162,2014-09-02,68.54158333333334,,68.54158333333334
162,2014-09-03,83.24791666666668,,83.24791666666668
162,2014-09-04,79.64266666666667,,79.64266666666667
162,2014-09-05,58.897250000000014,,58.897250000000014
162,2014-09-06,49.760749999999994,,49.760749999999994
162,2014-09-07,75.76391666666667,,75.76391666666667
162,2014-09-08,56.86175,,56.86175
162,2014-09-09,33.55795833333333,,33.55795833333333
162,2014-09-10,79.43420833333333,,79.43420833333333
162,2014-09-11,41.638333333333335,,41.638333333333335
162,2014-09-12,86.067,,86.067
162,2014-09-13,13.468708333333334,,13.468708333333334
162,2014-09-14,68.76045833333333,,68.76045833333333
162,2014-09-15,83.78220833333333,,83.78220833333333
162,2014-09-16,33.382749999999994,,33.382749999999994
162,2014-09-17,84.70370833333334,,84.70370833333334
162,2014-09-18,65.50408333333333,,65.50408333333333
162,2014-09-19,74.13275,,74.13275
162,2014-09-20,76.05066666666667,,76.05066666666667
162,2014-09-21,24.786875,,24.786875
162,2014-09-22,56.881125000000004,,56.881125000000004
162,2014-09-23,79.66924999999999,,79.66924999999999
162,2014-09-24,54.62595833333333,,54.62595833333333
162,2014-09-25,25.278458333333333,,25.278458333333333
162,2014-09-26,78.105625,,78.105625
162,2014-09-27,76.93691666666668,,76.93691666666668
162,2014-09-28,60.008541666666666,,60.008541666666666
162,2014-09-29,32.00779166666667,,32.00779166666667
162,2014-09-30,28.482916666666668,,28.482916666666668
162,2014-10-01,13.670666666666667,,13.670666666666667
162,2014-10-02,21.501583333333333,,21.501583333333333
162,2014-10-03,69.12216666666667,,69.12216666666667
162,2014-10-04,27.468666666666664,,27.468666666666664
162,2014-10-05,68.39841666666666,,68.39841666666666
162,2014-10-06,73.24716666666666,,73.24716666666666
162,2014-10-07,41.69020833333333,,41.69020833333333
162,2014-10-08,69.85983333333333,,69.85983333333333
162,2014-10-09,57.87699999999999,,57.87699999999999
162,2014-10-10,38.495333333333335,,38.495333333333335
162,2014-10-11,10.285583333333333,,10.285583333333333
162,2014-10-12,62.28374999999999,,62.28374999999999
162,2014-10-13,20.263208333333335,,20.263208333333335
162,2014-10-14,58.168041666666674,,58.168041666666674
162,2014-10-15,26.89491666666667,,26.89491666666667
162,2014-10-16,44.72595833333333,,44.72595833333333
162,2014-10-17,68.25254166666666,,68.25254166666666
162,2014-10-18,38.46754166666667,,38.46754166666667
162,2014-10-19,58.588458333333335,,58.588458333333335
162,2014-10-20,52.02875,,52.02875
162,2014-10-21,47.65687500000001,,47.65687500000001
162,2014-10-22,5.799125,,5.799125
162,2014-10-23,12.944625,,12.944625
162,2014-10-24,39.551625,,39.551625
162,2014-10-25,59.60824999999999,,59.60824999999999
162,2014-10-26,38.10583333333333,,38.10583333333333
162,2014-10-27,61.08454166666667,,61.08454166666667
162,2014-10-28,47.31020833333333,,47.31020833333333
162,2014-10-29,37.72995833333333,,37.72995833333333
162,2014-10-30,55.02916666666667,,55.02916666666667
162,2014-10-31,18.943166666666666,,18.943166666666666
162,2014-11-01,4.925833333333332,,4.925833333333332
162,2014-11-02,41.467333333333336,,41.467333333333336
162,2014-11-03,53.324374999999996,,53.324374999999996
162,2014-11-04,52.40966666666666,,52.40966666666666
162,2014-11-05,18.220583333333334,,18.220583333333334
162,2014-11-06,2.5468749999999996,,2.5468749999999996
162,2014-11-07,26.637583333333335,,26.637583333333335
162,2014-11-08,51.117124999999994,,51.117124999999994
162,2014-11-09,30.447541666666663,,30.447541666666663
162,2014-11-10,49.42516666666666,,49.42516666666666
162,2014-11-11,37.84883333333334,,37.84883333333334
162,2014-11-12,16.856875,,16.856875
162,2014-11-13,26.760666666666665,,26.760666666666665
162,2014-11-14,50.067,,50.067
162,2014-11-15,49.718250000000005,,49.718250000000005
162,2014-11-16,11.710041666666667,,11.710041666666667
162,2014-11-17,3.0199999999999996,,3.0199999999999996
162,2014-11-18,54.230791666666676,,54.230791666666676
162,2014-11-19,52.12475,,52.12475
162,2014-11-20,35.847833333333334,,35.847833333333334
162,2014-11-21,49.85870833333334,,49.85870833333334
162,2014-11-22,48.80587499999999,,48.80587499999999
162,2014-11-23,34.58658333333333,,34.58658333333333
162,2014-11-24,25.468791666666664,,25.468791666666664
162,2014-11-25,16.206875,,16.206875
162,2014-11-26,0.9432916666666666,,0.9432916666666666
162,2014-11-27,0.038375,,0.038375
162,2014-11-28,34.958666666666666,,34.958666666666666
162,2014-11-29,18.592041666666667,,18.592041666666667
162,2014-11-30,22.931083333333333,,22.931083333333333
162,2014-12-01,22.107791666666667,,22.107791666666667
162,2014-12-02,7.064291666666667,,7.064291666666667
162,2014-12-03,5.025125,,5.025125
162,2014-12-04,41.385083333333334,,41.385083333333334
162,2014-12-05,8.641708333333332,,8.641708333333332
162,2014-12-06,3.7739166666666666,,3.7739166666666666
162,2014-12-07,37.12241666666667,,37.12241666666667
162,2014-12-08,13.006416666666667,,13.006416666666667
162,2014-12-09,3.2655,,3.2655
162,2014-12-10,13.765333333333333,,13.765333333333333
162,2014-12-11,19.700166666666668,,19.700166666666668
162,2014-12-12,32.73191666666667,,32.73191666666667
162,2014-12-13,40.62920833333333,,40.62920833333333
162,2014-12-14,16.659916666666664,,16.659916666666664
162,2014-12-15,37.55325,,37.55325
162,2014-12-16,16.97525,,16.97525
162,2014-12-17,22.061458333333334,,22.061458333333334
162,2014-12-18,30.346375000000005,,30.346375000000005
162,2014-12-19,18.3135,,18.3135
162,2014-12-20,4.139208333333333,,4.139208333333333
162,2014-12-21,8.809083333333334,,8.809083333333334
162,2014-12-22,6.6598749999999995,,6.6598749999999995
162,2014-12-23,7.886375,,7.886375
162,2014-12-24,2.7724583333333332,,2.7724583333333332
162,2014-12-25,6.419208333333333,,6.419208333333333
162,2014-12-26,38.78066666666667,,38.78066666666667
162,2014-12-27,36.48829166666667,,36.48829166666667
162,2014-12-28,14.744291666666669,,14.744291666666669
162,2014-12-29,30.533708333333333,,30.533708333333333
162,2014-12-30,24.24316666666667,,24.24316666666667
162,2014-12-31,36.128125,,36.128125
162,2015-01-01,38.110749999999996,,38.110749999999996
162,2015-01-02,35.45133333333333,,35.45133333333333
162,2015-01-03,7.108416666666666,,7.108416666666666
162,2015-01-04,6.582791666666666,,6.582791666666666
162,2015-01-05,36.357083333333335,,36.357083333333335
162,2015-01-06,1.5687500000000003,,1.5687500000000003
162,2015-01-07,27.243916666666667,,27.243916666666667
162,2015-01-08,44.091291666666656,,44.091291666666656
162,2015-01-09,6.407041666666665,,6.407041666666665
162,2015-01-10,29.354249999999997,,29.354249999999997
162,2015-01-11,36.26620833333333,,36.26620833333333
162,2015-01-12,3.286916666666667,,3.286916666666667
162,2015-01-13,48.719083333333344,,48.719083333333344
162,2015-01-14,28.819666666666667,,28.819666666666667
162,2015-01-15,32.64066666666667,,32.64066666666667
162,2015-01-16,39.04837499999999,,39.04837499999999
162,2015-01-17,48.95008333333334,,48.95008333333334
162,2015-01-18,1.460416666666667,,1.460416666666667
162,2015-01-19,28.840166666666665,,28.840166666666665
162,2015-01-20,30.712874999999997,,30.712874999999997
162,2015-01-21,28.212791666666664,,28.212791666666664
162,2015-01-22,32.03,,32.03
162,2015-01-23,49.64124999999999,,49.64124999999999
162,2015-01-24,0.006791666666666667,,0.006791666666666667
162,2015-01-25,11.272124999999997,,11.272124999999997
162,2015-01-26,3.961041666666667,,3.961041666666667
162,2015-01-27,6.731083333333333,,6.731083333333333
162,2015-01-28,21.460666666666665,,21.460666666666665
162,2015-01-29,15.804208333333333,,15.804208333333333
162,2015-01-30,8.2545,,8.2545
162,2015-01-31,27.799333333333326,,27.799333333333326
162,2015-02-01,14.357541666666664,,14.357541666666664
162,2015-02-02,0.05104166666666667,,0.05104166666666667
162,2015-02-03,2.4232500000000003,,2.4232500000000003
162,2015-02-04,1.4949166666666664,,1.4949166666666664
162,2015-02-05,3.257166666666667,,3.257166666666667
162,2015-02-06,3.449833333333333,,3.449833333333333
162,2015-02-07,1.8118333333333332,,1.8118333333333332
162,2015-02-08,6.328,,6.328
162,2015-02-09,3.4096249999999997,,3.4096249999999997
162,2015-02-10,18.927916666666665,,18.927916666666665
162,2015-02-11,40.535833333333336,,40.535833333333336
162,2015-02-12,23.448333333333334,,23.448333333333334
162,2015-02-13,55.465083333333325,,55.465083333333325
162,2015-02-14,11.839125000000001,,11.839125000000001
162,2015-02-15,46.702374999999996,,46.702374999999996
162,2015-02-16,51.30383333333334,,51.30383333333334
162,2015-02-17,0.9451666666666667,,0.9451666666666667
162,2015-02-18,8.232875,,8.232875
162,2015-02-19,34.54208333333333,,34.54208333333333
162,2015-02-20,54.581875000000004,,54.581875000000004
162,2015-02-21,17.008041666666667,,17.008041666666667
162,2015-02-22,3.580458333333333,,3.580458333333333
162,2015-02-23,0.0,,0.0
162,2015-02-24,0.0,,0.0
162,2015-02-25,0.0,,0.0
162,2015-02-26,0.0,,0.0
162,2015-02-27,0.0,,0.0
162,2015-02-28,0.0,,0.0
162,2015-03-01,0.0,,0.0
162,2015-03-02,0.0,,0.0
162,2015-03-03,0.0,,0.0
162,2015-03-04,0.0,,0.0
162,2015-03-05,0.0,,0.0
162,2015-03-06,0.0,,0.0
162,2015-03-07,0.0,,0.0
162,2015-03-08,0.0,,0.0
162,2015-03-09,0.0,,0.0
162,2015-03-10,0.0,,0.0
162,2015-03-11,0.0,,0.0
162,2015-03-12,0.0,,0.0
162,2015-03-13,0.0,,0.0
162,2015-03-14,0.0,,0.0
162,2015-03-15,0.0,,0.0
162,2015-03-16,0.0,,0.0
162,2015-03-17,0.0,,0.0
162,2015-03-18,0.0,,0.0
162,2015-03-19,0.0,,0.0
162,2015-03-20,0.0,,0.0
162,2015-03-21,0.0,,0.0
162,2015-03-22,0.0,,0.0
162,2015-03-23,30.94033333333333,,30.94033333333333
162,2015-03-24,69.68112499999998,,69.68112499999998
162,2015-03-25,47.35987500000001,,47.35987500000001
162,2015-03-26,0.0,,0.0
162,2015-03-27,19.55816666666667,,19.55816666666667
162,2015-03-28,58.036333333333324,,58.036333333333324
162,2015-03-29,84.87295833333334,,84.87295833333334
162,2015-03-30,47.310958333333325,,47.310958333333325
162,2015-03-31,29.950041666666667,,29.950041666666667
162,2015-04-01,88.05358333333334,,88.05358333333334
162,2015-04-02,0.0,,0.0
162,2015-04-03,19.65458333333333,,19.65458333333333
162,2015-04-04,85.49470833333334,,85.49470833333334
162,2015-04-05,0.07079166666666666,,0.07079166666666666
162,2015-04-06,79.54383333333332,,79.54383333333332
162,2015-04-07,23.556708333333333,,23.556708333333333
162,2015-04-08,26.595625,,26.595625
162,2015-04-09,0.0,,0.0
162,2015-04-10,25.859583333333337,,25.859583333333337
162,2015-04-11,80.60616666666667,,80.60616666666667
162,2015-04-12,70.79266666666668,,70.79266666666668
162,2015-04-13,71.82283333333334,,71.82283333333334
162,2015-04-14,21.6635,,21.6635
162,2015-04-15,84.44295833333332,,84.44295833333332
162,2015-04-16,0.0,,0.0
162,2015-04-17,38.61833333333333,,38.61833333333333
162,2015-04-18,85.94175,,85.94175
162,2015-04-19,84.37141666666668,,84.37141666666668
162,2015-04-20,19.50425,,19.50425
162,2015-04-21,89.49675,,89.49675
162,2015-04-22,59.411249999999995,,59.411249999999995
162,2015-04-23,0.0,,0.0
162,2015-04-24,78.30987499999999,,78.30987499999999
162,2015-04-25,86.44245833333332,,86.44245833333332